{"data":{"norad_id":41888,"intl_designator":"2016-078E","name":"CYGFM08","alt_names":[],"object_type":"PAYLOAD","status":"INACTIVE","operator":null,"country":"US","launch_date":"2016-12-15","launch_site_code":"ERAS","launch_vehicle":null,"mission":null,"orbit_class":"UNKNOWN","rcs_meters":0.197,"size_class":null,"mass_kg":null,"dimensions":null,"purposes":["earth_obs"],"wikipedia_slug":null,"has_3d_model":false,"image_url":null,"decayed_at":null,"tle_current":{"epoch":"2026-05-25T01:56:06.565056Z","epoch_age_seconds":67841,"freshness":"FRESH","line1":"1 41888U 16078E   26145.08063154  .00025328  00000+0  31792-3 0  9990","line2":"2 41888  34.9444  34.8793 0009933 313.2927  46.6968 15.58648863525368","mean_motion":15.58648863,"eccentricity":0.0009933,"inclination_deg":34.9444,"raan_deg":34.8793,"arg_perigee_deg":313.2927,"mean_anomaly_deg":46.6968,"bstar":0.00031792,"rev_number":52536,"period_min":92.387710547478,"perigee_km":384.84218629148,"apogee_km":398.29087932976,"semimajor_km":6769.7035328106,"source":"CELESTRAK","updated_at":"2026-05-25T13:38:11.919965Z"}}}